Location: Pryor
(45.4297°N, 108.5332°W)
Time: 06:52:09
(UTC+00:00)

Tiangong - Visible Passes

Search period start: 29 January 2022 00:00
Search period end: 08 February 2022 00:00
Orbit: 381 x 387 km, 41.5° (Epoch: 28 January)

Date Brightness Start Highest point End Pass type
(mag) Time Alt. Az. Time Alt. Az. Time Alt. Az.
29 Jan 3.5 01:05:21 10° S 01:06:58 13° SSE 01:08:35 10° ESE visible
29 Jan 3.8 02:40:21 10° SW 02:41:20 17° SW 02:41:20 17° SW visible
30 Jan 2.5 01:40:51 10° SW 01:43:34 26° SSE 01:44:27 23° SE visible
31 Jan 2.4 02:17:19 10° WSW 02:19:43 34° SSW 02:19:43 34° SSW visible
01 Feb 2.3 01:17:37 10° SW 01:20:32 33° S 01:22:45 15° ESE visible
01 Feb 4.0 02:54:04 10° WSW 02:54:57 17° WSW 02:54:57 17° WSW visible
02 Feb 2.0 01:54:13 10° WSW 01:57:14 40° S 01:57:58 34° SE visible
03 Feb 2.2 00:54:24 10° WSW 00:57:24 38° S 01:00:23 10° ESE visible
03 Feb 2.9 02:31:01 10° WSW 02:33:11 28° SW 02:33:11 28° SW visible
04 Feb 2.2 01:31:05 10° WSW 01:34:04 37° S 01:36:12 16° SE visible
04 Feb 4.5 03:08:11 10° WSW 03:08:25 11° WSW 03:08:25 11° WSW visible
05 Feb 2.9 02:07:58 10° WSW 02:10:38 25° SSW 02:11:29 22° S visible
06 Feb 2.6 01:07:53 10° WSW 01:10:46 32° SSW 01:13:38 10° SE visible
06 Feb 4.0 02:45:39 10° SW 02:46:50 12° SSW 02:46:50 12° SSW visible
07 Feb 3.6 01:44:56 10° WSW 01:47:12 18° SSW 01:49:27 10° SSE visible
